Location: Silverdale
(47.6506°N, 122.6941°W)
Time: 15:26:57
(UTC+00:00)

deb Explorer IX - All Passes

Search period start: 26 September 2022 00:00
Search period end: 06 October 2022 00:00
Orbit: 531 x 1066 km, 38.8° (Epoch: 25 September)

Date Brightness Start Highest point End Pass type
(mag) Time Alt. Az. Time Alt. Az. Time Alt. Az.
26 Sep - 17:08:07 10° SSW 17:13:04 26° SSE 17:18:28 10° ESE daylight
26 Sep - 18:52:57 10° WSW 18:58:54 39° S 19:05:22 10° ESE daylight
26 Sep - 20:38:55 10° WSW 20:45:00 35° SSW 20:51:20 10° SE daylight
26 Sep - 22:26:06 10° WSW 22:30:47 19° SSW 22:35:28 10° SSE daylight
27 Sep - 16:37:56 10° SSW 16:42:35 24° SSE 16:47:43 10° ESE daylight
27 Sep - 18:22:34 10° WSW 18:28:21 38° S 18:34:42 10° ESE daylight
27 Sep - 20:08:26 10° WSW 20:14:26 35° SSW 20:20:46 10° SE daylight
27 Sep - 21:55:26 10° WSW 22:00:15 20° SSW 22:05:08 10° SSE daylight
28 Sep - 16:07:46 10° SSW 16:12:07 22° SSE 16:16:55 10° ESE daylight
28 Sep - 17:52:13 10° WSW 17:57:48 37° S 18:04:00 10° ESE daylight
28 Sep - 19:37:58 10° WSW 19:43:52 36° S 19:50:10 10° SE daylight
28 Sep - 21:24:48 10° WSW 21:29:43 21° SSW 21:34:44 10° SSE daylight
29 Sep - 15:37:39 10° SSW 15:41:40 20° SSE 15:46:06 10° ESE daylight
29 Sep - 17:21:53 10° SW 17:27:16 36° S 17:33:18 10° ESE daylight
29 Sep - 19:07:33 10° WSW 19:13:17 36° S 19:19:32 10° SE daylight
29 Sep - 20:54:13 10° WSW 20:59:09 22° SSW 21:04:17 10° SSE daylight
30 Sep - 15:07:34 10° SSW 15:11:14 18° SSE 15:15:15 10° ESE daylight
30 Sep - 16:51:35 10° SW 16:56:45 34° S 17:02:34 10° ESE daylight
30 Sep - 18:37:07 10° WSW 18:42:43 36° S 18:48:53 10° SE daylight
30 Sep - 20:23:40 10° WSW 20:28:35 22° SSW 20:33:46 10° SSE daylight
01 Oct - 14:37:32 10° S 14:40:48 17° SSE 14:44:21 10° ESE daylight
01 Oct - 16:21:18 10° SW 16:26:14 33° SSE 16:31:50 10° ESE daylight
01 Oct - 18:06:43 10° WSW 18:12:09 36° S 18:18:12 10° ESE daylight
01 Oct - 19:53:08 10° WSW 19:58:02 23° SSW 20:03:14 10° SSE daylight
02 Oct - 14:07:33 10° S 14:10:23 15° SSE 14:13:25 10° ESE daylight
02 Oct - 15:51:02 10° SW 15:55:44 31° SSE 16:01:05 10° ESE daylight
02 Oct - 17:36:21 10° WSW 17:41:35 35° S 17:47:29 10° ESE daylight
02 Oct - 19:22:38 10° WSW 19:27:28 23° SSW 19:32:39 10° SSE daylight
03 Oct - 13:37:40 10° S 13:39:58 13° SSE 13:42:24 10° ESE visible
03 Oct - 15:20:47 10° SW 15:25:15 29° SSE 15:30:19 10° ESE daylight
03 Oct - 17:05:59 10° WSW 17:11:02 35° S 17:16:46 10° ESE daylight
03 Oct - 18:52:09 10° WSW 18:56:54 24° SSW 19:02:03 10° SSE daylight
04 Oct - 13:07:56 10° SSE 13:09:34 12° SSE 13:11:14 10° SE visible
04 Oct - 14:50:32 10° SW 14:54:46 27° SSE 14:59:34 10° ESE daylight
04 Oct - 16:35:38 10° WSW 16:40:30 34° S 16:46:03 10° ESE daylight
04 Oct - 18:21:43 10° WSW 18:26:20 24° SSW 18:31:24 10° SSE daylight
05 Oct - 14:20:18 10° SW 14:24:18 26° SSE 14:28:47 10° ESE daylight
05 Oct - 16:05:18 10° WSW 16:09:58 33° S 16:15:18 10° ESE daylight
05 Oct - 17:51:17 10° WSW 17:55:47 24° SSW 18:00:45 10° SSE daylight
